Wind_Speed
43 45 45 44 46 49 51 52 52 52 52 53 54 52 49 47 46 44 43 43 41 37 33 31 30 30 29 28 27 26 25 24 25 25 25 25 26 27 28 30 31 32 33 34
44 44 44 46 48 51 53 54 54 54 54 55 56 56 52 49 48 46 44 43 41 38 34 31 30 30 29 28 27 26 25 25 25 25 26 26 27 28 30 31 33 34 34 35
43 44 45 47 49 51 52 53 53 54 54 56 57 58 56 51 49 48 46 44 42 38 33 31 30 30 29 28 27 27 26 26 26 26 26 27 28 30 32 33 34 35 37 38
42 42 44 46 47 49 50 49 51 52 53 54 56 60 57 52 50 49 46 43 41 37 33 30 30 30 29 28 27 27 26 26 26 27 27 29 30 32 33 35 36 38 39 40
39 39 41 43 42 44 45 43 45 47 49 51 52 57 57 53 51 48 44 42 40 36 32 29 30 30 29 27 26 26 26 26 26 27 28 30 32 33 35 37 38 39 40 41
36 37 38 38 38 39 39 39 41 44 46 51 50 53 57 52 48 44 43 41 38 35 31 30 30 29 28 27 26 25 25 25 26 27 29 31 32 34 36 37 39 40 41 42
33 32 32 32 33 33 35 36 38 41 45 47 45 51 52 46 45 43 40 38 36 33 30 30 30 29 28 27 26 25 25 25 26 28 29 31 33 35 36 38 39 40 41 42
30 26 26 27 28 29 30 33 35 37 38 37 42 49 44 39 40 39 38 36 34 32 30 30 30 29 27 26 25 25 25 25 27 28 29 31 33 35 37 38 40 41 42 43
25 21 21 21 23 25 27 30 31 33 30 32 40 42 38 36 37 36 35 33 31 30 30 30 28 27 26 25 24 24 25 25 27 28 29 31 33 35 37 39 40 41 43 44
20 17 16 16 19 21 23 26 32 31 25 28 35 37 37 35 34 32 30 29 28 28 29 28 26 25 24 24 24 24 24 25 26 28 30 32 34 36 37 39 41 42 44 45
16 15 13 14 15 17 22 26 28 25 21 23 29 31 30 28 27 26 26 27 27 26 26 25 24 23 22 22 22 23 24 25 27 29 31 32 34 36 38 40 42 43 45 46
14 12 10 11 14 18 21 24 25 23 20 21 23 26 28 27 27 28 28 28 27 26 25 24 23 21 21 20 21 22 24 26 27 29 31 33 35 37 39 41 43 44 46 48
13 10 8 9 12 16 19 22 23 22 19 21 21 23 26 28 29 29 28 26 25 24 23 21 20 20 20 21 22 23 25 26 28 30 32 34 36 38 40 42 44 46 48 50
14 9 7 7 9 13 16 19 21 22 21 19 19 20 23 25 26 26 25 24 23 22 21 20 20 20 20 21 22 23 25 27 29 31 33 35 38 40 42 43 45 47 49 52
12 7 6 6 10 15 19 20 22 23 20 20 20 19 21 23 24 24 24 23 21 20 19 19 19 19 20 21 22 24 26 28 31 33 35 37 39 41 43 45 47 48 51 55
12 8 7 8 11 14 20 22 24 23 21 22 21 21 22 23 23 23 22 21 20 19 19 19 19 19 20 21 23 25 27 30 32 34 36 38 40 42 44 46 48 51 54 57
12 9 8 8 11 13 17 21 21 20 21 22 21 19 19 20 21 21 20 20 19 19 19 19 19 20 20 22 24 27 29 31 33 35 37 39 41 43 45 47 50 53 56 58
14 11 10 11 12 14 17 20 19 19 19 19 20 20 20 20 20 20 20 19 19 19 20 20 20 21 22 24 26 28 30 32 34 36 38 40 43 44 46 49 52 55 57 58
16 14 13 13 13 14 17 18 18 19 19 19 19 20 19 18 18 17 17 18 19 20 20 20 22 23 24 26 28 29 31 33 35 37 40 41 43 45 48 51 54 56 57 58
18 16 16 15 14 13 15 17 17 18 18 18 18 18 17 17 16 15 17 18 19 19 20 21 23 25 26 27 28 30 32 34 36 38 40 41 44 47 50 53 55 55 57 59
19 18 17 15 13 11 12 14 15 16 16 17 17 17 17 17 17 18 19 19 19 20 21 22 23 25 26 27 28 30 32 34 36 38 40 43 45 49 52 53 54 55 57 61
18 17 16 14 12 12 12 13 15 15 15 16 16 16 16 17 17 18 18 18 19 19 20 21 22 23 25 27 29 31 33 35 37 39 41 44 47 50 52 52 54 56 59 64
17 17 17 16 15 14 14 13 14 15 14 14 14 14 14 14 15 15 15 16 17 18 19 20 22 24 26 28 30 32 34 35 37 40 43 46 49 50 51 53 55 58 63 67
17 18 18 18 17 16 15 14 13 14 13 13 13 13 13 13 13 13 14 15 16 17 19 21 23 25 27 29 30 32 34 36 39 42 45 47 48 50 51 54 57 62 66 71
17 17 17 18 18 17 16 14 13 13 13 12 13 13 13 13 12 13 13 14 16 18 20 22 24 26 27 29 31 33 35 38 41 43 45 47 48 50 52 56 61 65 70 76
16 16 16 17 18 18 17 15 14 13 13 13 12 12 12 12 12 13 14 15 17 18 20 22 24 26 28 30 32 35 37 40 42 44 45 47 49 51 54 59 64 69 74 79
Wind_Direction
267 266 265 265 261 259 256 253 251 248 246 244 243 242 239 235 235 235 235 236 237 238 238 238 239 242 245 249 251 249 248 249 252 256 260 264 269 274 279 284 288 291 292 292
269 269 267 263 261 259 257 255 252 249 246 244 242 240 237 234 232 232 233 234 235 234 234 235 236 239 242 247 249 250 250 251 254 258 262 266 271 276 282 286 289 291 292 293
271 269 266 264 262 260 258 256 254 250 246 244 242 239 235 232 231 231 231 232 232 231 231 232 233 236 240 244 247 249 251 253 256 259 262 267 273 278 283 287 290 291 292 294
273 271 268 265 263 261 259 258 253 249 245 241 239 238 232 230 229 229 229 231 231 228 228 229 231 234 237 241 244 247 250 252 255 259 263 269 274 279 283 286 289 291 293 294
275 270 266 265 263 260 258 253 249 245 241 238 233 235 229 227 226 226 226 229 229 226 226 226 228 231 234 237 242 245 248 251 255 260 265 270 275 279 283 286 289 291 293 294
273 270 268 266 261 258 253 247 245 242 238 235 228 231 229 223 224 223 224 227 226 224 224 225 227 229 232 236 241 245 248 252 257 262 266 271 276 280 283 286 289 291 293 295
273 270 268 262 257 253 249 245 244 240 235 232 224 226 226 219 220 220 223 224 222 223 224 225 226 228 232 236 241 245 249 254 259 263 268 273 277 281 284 287 289 292 294 296
273 268 264 258 254 251 247 241 238 235 231 227 220 222 220 215 214 215 217 216 216 219 221 222 224 227 232 237 242 247 252 256 261 266 270 274 278 282 285 288 290 293 295 296
271 264 258 254 249 245 242 236 231 225 225 226 218 216 210 207 207 210 212 211 212 217 219 220 222 227 232 237 243 249 254 259 264 268 272 276 280 283 287 289 291 293 295 297
264 257 249 251 251 244 238 229 218 218 225 223 213 209 204 203 206 208 208 208 211 215 216 218 221 226 231 238 245 251 257 262 267 271 275 279 282 286 288 290 292 294 296 298
253 247 240 240 240 233 227 218 214 214 210 204 208 203 198 200 203 203 202 204 208 211 212 214 219 225 232 239 247 254 261 266 270 274 278 282 285 288 289 291 293 295 297 298
242 240 235 235 229 226 224 216 213 211 200 197 199 195 191 190 190 192 195 199 203 206 209 213 218 226 234 243 251 259 265 269 273 277 281 284 287 289 290 292 295 297 298 300
227 225 217 220 227 225 221 213 206 195 189 186 186 183 183 187 187 189 191 195 200 205 210 216 222 231 240 249 256 262 267 272 276 280 283 286 288 290 292 294 297 299 300 301
219 213 204 208 212 214 209 202 192 185 181 175 177 179 181 185 188 190 192 195 200 206 213 220 228 237 245 252 259 265 270 275 278 282 285 287 289 291 294 297 299 300 301 303
215 198 190 195 197 196 194 191 184 180 175 172 169 174 178 182 185 188 193 198 203 210 217 225 233 241 249 256 263 269 273 277 281 284 287 289 291 294 296 298 299 301 303 305
201 187 187 182 182 188 190 189 185 181 171 166 169 176 179 180 184 187 192 198 205 213 221 230 239 247 254 261 267 272 276 280 283 286 288 290 293 296 298 299 300 303 305 306
193 184 173 163 169 176 180 179 177 173 172 171 175 182 184 188 191 194 198 204 212 219 227 236 245 253 261 266 271 276 279 283 286 287 290 292 295 297 298 300 302 304 306 308
187 181 167 160 165 171 173 173 175 178 181 185 189 192 194 198 201 204 209 215 221 228 235 243 252 259 265 270 275 279 282 285 286 289 291 294 296 297 300 302 304 306 307 308
188 181 174 172 176 174 177 180 183 187 191 196 199 201 203 206 209 212 219 225 231 237 243 251 257 263 269 274 277 281 283 285 288 290 293 294 296 299 301 303 305 307 308 309
194 187 180 177 177 178 180 187 192 196 202 207 212 216 218 221 223 225 230 234 239 245 251 256 262 267 272 276 279 281 284 286 289 291 293 295 298 300 302 304 306 307 309 310
194 189 186 185 184 187 190 194 199 206 212 218 222 227 230 230 230 234 239 243 247 252 256 260 265 269 273 276 279 282 285 288 290 292 294 296 298 301 304 306 307 309 310 312
196 194 194 195 194 196 201 204 209 215 221 225 228 229 231 232 236 241 244 247 250 254 259 263 268 271 275 278 282 285 287 289 291 293 295 298 300 303 305 307 308 310 311 313
201 202 201 200 202 205 207 210 215 220 224 226 227 227 228 231 234 238 241 245 250 256 263 268 272 276 279 282 285 287 289 291 293 295 297 300 303 305 307 308 310 311 313 315
207 207 206 205 206 207 210 214 219 221 221 223 224 224 226 230 235 239 244 249 256 264 270 274 278 281 283 285 287 289 291 293 295 297 300 303 305 307 309 310 312 313 315 317
206 207 206 205 207 209 213 217 219 217 216 219 220 223 227 231 235 241 249 257 266 273 276 279 282 284 285 288 290 291 293 294 297 299 302 305 307 309 311 312 314 316 317 318
203 204 204 205 211 215 215 218 218 218 218 219 221 223 227 233 242 253 262 269 274 278 280 283 285 287 289 290 291 292 294 296 299 302 305 307 309 311 313 315 317 318 319 320
Height
5674 5676 5677 5678 5678 5679 5680 5683 5687 5691 5693 5694 5699 5706 5714 5720 5725 5730 5735 5739 5744 5749 5754 5758 5760 5763 5765 5767 5769 5771 5773 5775 5776 5777 5778 5778 5778 5778 5777 5776 5774 5772 5770 5767
5664 5665 5665 5663 5663 5664 5666 5669 5674 5678 5679 5680 5686 5692 5701 5708 5715 5721 5726 5730 5736 5742 5747 5751 5754 5757 5759 5761 5763 5765 5767 5769 5770 5771 5772 5772 5772 5772 5771 5769 5767 5765 5762 5760
5651 5653 5650 5650 5650 5650 5652 5656 5660 5663 5664 5666 5672 5679 5689 5698 5704 5710 5716 5721 5727 5734 5740 5744 5748 5751 5753 5755 5757 5759 5761 5762 5764 5765 5765 5766 5765 5765 5764 5762 5760 5757 5754 5751
5639 5639 5638 5637 5637 5636 5639 5643 5643 5646 5647 5652 5658 5664 5677 5686 5693 5701 5708 5713 5720 5728 5733 5738 5741 5744 5747 5750 5752 5753 5755 5756 5758 5759 5759 5759 5759 5758 5756 5754 5752 5749 5746 5743
5628 5627 5624 5624 5626 5623 5627 5627 5628 5631 5633 5637 5645 5650 5664 5674 5682 5692 5701 5706 5713 5721 5727 5731 5734 5738 5741 5744 5746 5747 5749 5750 5751 5752 5753 5752 5751 5750 5749 5746 5744 5741 5737 5734
5616 5614 5613 5614 5613 5612 5614 5615 5616 5617 5619 5623 5635 5639 5650 5665 5677 5686 5693 5699 5706 5714 5720 5724 5728 5731 5735 5738 5740 5742 5743 5744 5745 5746 5746 5745 5744 5743 5741 5739 5736 5732 5729 5725
5605 5604 5603 5602 5602 5603 5604 5606 5607 5607 5608 5615 5627 5628 5641 5661 5670 5678 5686 5693 5701 5708 5713 5717 5722 5726 5729 5732 5734 5736 5737 5738 5739 5739 5739 5738 5737 5735 5733 5730 5727 5724 5720 5716
5595 5596 5595 5594 5594 5595 5596 5598 5601 5603 5605 5612 5617 5621 5639 5653 5661 5669 5678 5685 5693 5700 5706 5711 5715 5719 5723 5726 5728 5730 5731 5732 5732 5732 5731 5730 5729 5727 5725 5722 5719 5715 5711 5706
5588 5589 5589 5588 5587 5588 5589 5590 5596 5598 5601 5606 5611 5620 5633 5643 5653 5662 5672 5680 5688 5694 5700 5705 5710 5714 5717 5719 5722 5723 5724 5725 5725 5725 5724 5723 5721 5719 5716 5713 5709 5705 5701 5697
5582 5583 5583 5583 5582 5583 5585 5588 5589 5592 5597 5603 5609 5617 5629 5640 5649 5659 5669 5676 5683 5689 5694 5699 5704 5708 5711 5713 5715 5717 5718 5718 5718 5718 5716 5715 5712 5710 5707 5704 5700 5696 5692 5688
5578 5578 5580 5580 5580 5581 5583 5585 5587 5591 5595 5603 5609 5620 5630 5640 5649 5658 5666 5673 5679 5685 5690 5694 5698 5702 5705 5707 5709 5711 5711 5711 5711 5710 5708 5706 5704 5701 5698 5695 5691 5687 5683 5678
5575 5575 5577 5578 5579 5580 5581 5584 5587 5591 5597 5603 5611 5622 5629 5638 5646 5654 5661 5668 5674 5679 5684 5689 5693 5696 5699 5701 5703 5704 5704 5704 5703 5702 5700 5698 5696 5693 5689 5686 5682 5677 5672 5667
5573 5575 5576 5578 5580 5580 5580 5582 5586 5591 5598 5605 5613 5623 5628 5636 5643 5650 5657 5664 5670 5675 5680 5684 5688 5691 5694 5696 5697 5697 5697 5697 5696 5694 5692 5690 5687 5684 5680 5676 5672 5667 5662 5656
5572 5574 5576 5577 5578 5579 5581 5584 5587 5592 5599 5607 5615 5622 5629 5635 5642 5648 5655 5660 5666 5671 5675 5679 5683 5686 5688 5689 5690 5690 5690 5689 5688 5686 5684 5682 5679 5675 5671 5667 5662 5657 5651 5645
5571 5573 5574 5576 5577 5579 5582 5586 5590 5595 5601 5609 5616 5622 5629 5634 5640 5646 5652 5657 5662 5667 5671 5674 5677 5680 5682 5683 5683 5683 5682 5681 5680 5678 5676 5673 5669 5666 5661 5657 5651 5646 5640 5633
5570 5573 5574 5576 5578 5581 5584 5588 5593 5598 5603 5609 5616 5622 5627 5633 5638 5644 5649 5654 5659 5663 5666 5669 5672 5674 5676 5676 5676 5676 5675 5673 5672 5670 5667 5664 5660 5656 5651 5646 5641 5635 5628 5621
5570 5573 5575 5578 5580 5583 5586 5591 5595 5600 5606 5611 5616 5623 5627 5632 5637 5642 5646 5651 5655 5658 5661 5664 5666 5668 5669 5669 5669 5668 5667 5665 5663 5661 5658 5654 5650 5646 5641 5636 5630 5624 5616 5608
5571 5573 5576 5579 5583 5586 5591 5593 5598 5602 5607 5611 5616 5621 5626 5630 5634 5639 5643 5647 5651 5654 5656 5658 5660 5661 5662 5661 5661 5660 5658 5657 5654 5651 5648 5645 5641 5636 5631 5625 5619 5612 5604 5596
5571 5574 5577 5581 5584 5587 5592 5595 5599 5604 5608 5612 5615 5619 5624 5628 5632 5636 5640 5643 5646 5649 5651 5653 5654 5654 5654 5654 5653 5652 5650 5648 5646 5643 5639 5635 5631 5626 5621 5615 5608 5600 5592 5583
5572 5575 5579 5582 5586 5589 5594 5596 5599 5604 5607 5611 5614 5618 5622 5626 5630 5634 5635 5638 5641 5643 5645 5646 5647 5647 5647 5646 5645 5644 5642 5640 5637 5634 5630 5626 5621 5616 5610 5603 5596 5588 5580 5571
5572 5576 5579 5583 5586 5589 5593 5596 5600 5605 5608 5609 5612 5615 5619 5622 5626 5628 5630 5633 5635 5637 5639 5639 5640 5640 5640 5639 5638 5636 5634 5631 5628 5625 5621 5617 5612 5606 5599 5592 5584 5577 5569 5560
5573 5576 5580 5583 5586 5591 5592 5595 5599 5602 5603 5606 5609 5612 5615 5618 5621 5623 5626 5628 5629 5631 5632 5633 5633 5633 5632 5631 5630 5628 5626 5623 5620 5616 5612 5607 5601 5595 5588 5581 5573 5565 5556 5547
5571 5576 5579 5583 5587 5589 5591 5593 5596 5598 5601 5603 5606 5609 5611 5614 5616 5619 5621 5623 5624 5625 5626 5626 5626 5625 5625 5623 5622 5620 5617 5614 5611 5607 5602 5596 5590 5584 5577 5569 5561 5553 5543 5534
5570 5573 5577 5580 5583 5586 5588 5591 5594 5596 5599 5601 5603 5606 5608 5610 5613 5615 5616 5618 5619 5620 5620 5620 5619 5618 5617 5616 5614 5612 5609 5605 5601 5597 5592 5586 5579 5572 5565 5557 5549 5540 5530 5520
5568 5570 5574 5577 5580 5583 5586 5589 5591 5594 5596 5598 5601 5603 5605 5607 5609 5610 5612 5613 5614 5614 5614 5613 5613 5612 5610 5608 5606 5603 5600 5596 5592 5587 5581 5575 5569 5562 5554 5546 5536 5527 5515 5503
5566 5569 5572 5575 5578 5581 5584 5586 5589 5591 5593 5596 5598 5600 5602 5604 5605 5607 5608 5608 5608 5608 5608 5607 5606 5605 5603 5601 5598 5595 5591 5587 5582 5577 5571 5565 5558 5551 5543 5534 5524 5511 5500 5486